Tracking 18980 objects as of 20-Feb-2018
HD Live streaming from Space Station
objects crossing your sky now

FENGYUN 1C DEB

Track FENGYUN 1C DEB now!
10-day predictions


NORAD ID: 38809
Int'l Code: 1999-025EUZ
Perigee: 686.8 km
Apogee: 1,032.8 km
Inclination: 98.8 °
Period: 102.0 minutes
Semi major axis: 7230 km
RCS: 0.003 m2 (small)
Launch date: May 10, 1999
Source: People's Republic of China (PRC)
Launch site: Taiyaun Space Center, China (TSC)

Note: This is SATELLITE DEBRIS
aabbcc
Your satellite tracking list
Your tracking list is empty




NASA's NSSDC Master Catalog

Two Line Element Set (TLE):
1 38809U 99025EUZ 18048.34788196 +.00000168 +00000-0 +89413-4 0  9994
2 38809 098.8301 095.0568 0239262 197.5016 161.7806 14.11963449357371
Source of the keplerian elements: AFSPC